This is the latest recevied weather packets stored in our database for station/object HS3UAA-1. If no packets are shown the sender has not sent any weather packets the latest 1 day(s).
| Time | Temp. | Humidity | Pressure | Rain* | Wind** | Luminosity | Snow |
|---|---|---|---|---|---|---|---|
| 1778031851 | 27.78° C | 53% | 998 hPa | - | 0 m/s | 0 W/m² | - |
| 1778031529 | 27.22° C | 51% | 998 hPa | - | 0 m/s | 0 W/m² | - |
| 1778031207 | 27.22° C | 51% | 998 hPa | - | 0 m/s | 0 W/m² | - |
| 1778030885 | 27.22° C | 54% | 997 hPa | - | 0 m/s | 0 W/m² | - |
| 1778030563 | 27.22° C | 56% | 997 hPa | - | 0 m/s | 0 W/m² | - |
| 1778030241 | 27.78° C | 54% | 997 hPa | - | 0 m/s | 0 W/m² | - |
| 1778029919 | 27.22° C | 54% | 997 hPa | - | 0 m/s | 0 W/m² | - |
| 1778029596 | 27.22° C | 55% | 997 hPa | - | 0 m/s | 0 W/m² | - |
| 1778029274 | 27.22° C | 56% | 997 hPa | - | 0 m/s | 0 W/m² | - |
| 1778028953 | 27.22° C | 56% | 997 hPa | - | 0 m/s | 0 W/m² | - |
| 1778028635 | 27.22° C | 57% | 997 hPa | - | 0 m/s | 0 W/m² | - |
| 1778028313 | 27.78° C | 56% | 997 hPa | - | 0 m/s | 0 W/m² | - |
| 1778027991 | 27.78° C | 56% | 997 hPa | - | 0 m/s | 0 W/m² | - |
| 1778027669 | 27.78° C | 55% | 997 hPa | - | 0 m/s | 0 W/m² | - |
| 1778027347 | 28.33° C | 53% | 997 hPa | - | 0 m/s | 0 W/m² | - |
| 1778027025 | 28.33° C | 52% | 997 hPa | - | 0 m/s | 0 W/m² | - |
| 1778026703 | 28.33° C | 50% | 997 hPa | - | 0 m/s | 0 W/m² | - |
| 1778026381 | 28.89° C | 49% | 997 hPa | - | 0 m/s | 0 W/m² | - |
| 1778026059 | 30.56° C | 50% | 997 hPa | - | 0 m/s | 0 W/m² | - |
| 1778025737 | 31.11° C | 54% | 997 hPa | - | 0 m/s | 0 W/m² | - |
| 1778025416 | 31.11° C | 54% | 997 hPa | - | 0 m/s | 0 W/m² | - |
| 1778025093 | 31.11° C | 54% | 997 hPa | - | 0 m/s | 0 W/m² | - |
| 1778024736 | 30.56° C | 55% | 996 hPa | - | 0 m/s | 0 W/m² | - |
| 1778024414 | 31.11° C | 54% | 996 hPa | - | 0 m/s | 0 W/m² | - |
| 1778024092 | 31.11° C | 53% | 996 hPa | - | 0 m/s | 0 W/m² | - |
* Rain since midnight (hover to see other rain measurements)
** Current wind speed in m/s (hover to see current wind gust speed)